TimeCDT,TemperatureF,Dew PointF,Humidity,Sea Level PressureIn,VisibilityMPH,Wind Direction,Wind SpeedMPH,Gust SpeedMPH,PrecipitationIn,Events,Conditions,WindDirDegrees,DateUTC
12:15 AM,87.8,64.4,46,29.93,10.0,SSE,11.5,-,N/A,,Clear,160,2013-08-02 05:15:00
12:35 AM,86.0,64.4,48,29.93,10.0,South,10.4,-,N/A,,Clear,170,2013-08-02 05:35:00
12:55 AM,84.2,64.4,51,29.94,10.0,South,8.1,-,N/A,,Clear,180,2013-08-02 05:55:00
1:15 AM,84.2,64.4,51,29.94,10.0,South,8.1,-,N/A,,Clear,180,2013-08-02 06:15:00
1:35 AM,82.4,64.4,54,29.94,10.0,South,9.2,-,N/A,,Clear,180,2013-08-02 06:35:00
1:55 AM,82.4,66.2,58,29.93,10.0,South,9.2,-,N/A,,Clear,190,2013-08-02 06:55:00
2:15 AM,82.4,64.4,54,29.93,10.0,South,9.2,-,N/A,,Clear,180,2013-08-02 07:15:00
2:35 AM,84.2,64.4,51,29.93,10.0,South,9.2,-,N/A,,Clear,170,2013-08-02 07:35:00
2:55 AM,82.4,64.4,54,29.93,10.0,South,10.4,-,N/A,,Clear,190,2013-08-02 07:55:00
3:15 AM,82.4,64.4,54,29.93,10.0,SSW,9.2,-,N/A,,Clear,200,2013-08-02 08:15:00
3:35 AM,82.4,64.4,54,29.94,10.0,South,10.4,-,N/A,,Clear,190,2013-08-02 08:35:00
3:55 AM,82.4,64.4,54,29.93,10.0,South,11.5,-,N/A,,Clear,180,2013-08-02 08:55:00
4:15 AM,82.4,64.4,54,29.93,10.0,South,11.5,-,N/A,,Clear,190,2013-08-02 09:15:00
4:35 AM,82.4,64.4,54,29.93,10.0,SSW,9.2,-,N/A,,Clear,200,2013-08-02 09:35:00
4:55 AM,80.6,64.4,58,29.93,10.0,South,10.4,-,N/A,,Clear,180,2013-08-02 09:55:00
5:15 AM,80.6,64.4,58,29.93,10.0,South,6.9,-,N/A,,Clear,170,2013-08-02 10:15:00
5:35 AM,78.8,64.4,61,29.93,10.0,SSW,8.1,-,N/A,,Clear,200,2013-08-02 10:35:00
5:55 AM,78.8,64.4,61,29.94,10.0,South,8.1,-,N/A,,Clear,180,2013-08-02 10:55:00
6:15 AM,78.8,64.4,61,29.94,10.0,South,9.2,-,N/A,,Clear,180,2013-08-02 11:15:00
6:35 AM,78.8,64.4,61,29.95,10.0,SSW,5.8,-,N/A,,Clear,210,2013-08-02 11:35:00
6:55 AM,78.8,64.4,61,29.95,10.0,SSW,4.6,-,N/A,,Clear,200,2013-08-02 11:55:00
7:15 AM,77.0,64.4,65,29.95,10.0,Calm,Calm,-,N/A,,Clear,0,2013-08-02 12:15:00
7:35 AM,78.8,64.4,61,29.95,10.0,South,4.6,-,N/A,,Clear,180,2013-08-02 12:35:00
7:55 AM,78.8,64.4,61,29.96,10.0,Calm,Calm,-,N/A,,Clear,0,2013-08-02 12:55:00
8:15 AM,80.6,66.2,61,29.96,10.0,South,3.5,-,N/A,,Clear,180,2013-08-02 13:15:00
8:35 AM,80.6,66.2,61,29.97,10.0,South,6.9,-,N/A,,Clear,170,2013-08-02 13:35:00
8:55 AM,82.4,66.2,58,29.97,10.0,South,6.9,-,N/A,,Clear,180,2013-08-02 13:55:00
9:15 AM,84.2,66.2,55,29.97,10.0,SSW,9.2,-,N/A,,Clear,200,2013-08-02 14:15:00
9:35 AM,87.8,66.2,49,29.97,10.0,SSW,10.4,-,N/A,,Clear,210,2013-08-02 14:35:00
9:55 AM,87.8,66.2,49,29.97,10.0,SSW,10.4,-,N/A,,Clear,200,2013-08-02 14:55:00
10:15 AM,89.6,66.2,46,29.97,10.0,SSW,8.1,-,N/A,,Clear,210,2013-08-02 15:15:00
10:35 AM,89.6,66.2,46,29.97,10.0,SSW,10.4,-,N/A,,Clear,200,2013-08-02 15:35:00
10:55 AM,91.4,66.2,43,29.97,10.0,South,12.7,-,N/A,,Clear,190,2013-08-02 15:55:00
11:15 AM,91.4,66.2,43,29.97,10.0,South,12.7,-,N/A,,Clear,190,2013-08-02 16:15:00
11:35 AM,93.2,66.2,41,29.97,10.0,South,11.5,16.1,N/A,,Clear,190,2013-08-02 16:35:00
11:55 AM,93.2,66.2,41,29.97,10.0,SSW,9.2,-,N/A,,Clear,210,2013-08-02 16:55:00
12:15 PM,95.0,64.4,36,29.97,10.0,SSE,13.8,17.3,N/A,,Clear,150,2013-08-02 17:15:00
12:35 PM,96.8,64.4,34,29.96,10.0,South,15.0,-,N/A,,Clear,170,2013-08-02 17:35:00
12:55 PM,96.8,64.4,34,29.96,10.0,South,11.5,16.1,N/A,,Clear,170,2013-08-02 17:55:00
1:15 PM,98.6,62.6,30,29.95,10.0,South,13.8,17.3,N/A,,Clear,190,2013-08-02 18:15:00
1:35 PM,98.6,62.6,30,29.95,10.0,SSW,10.4,-,N/A,,Clear,200,2013-08-02 18:35:00
1:55 PM,98.6,62.6,30,29.94,10.0,South,10.4,17.3,N/A,,Clear,190,2013-08-02 18:55:00
2:15 PM,98.6,62.6,30,29.93,10.0,SSE,13.8,21.9,N/A,,Clear,150,2013-08-02 19:15:00
2:35 PM,98.6,62.6,30,29.93,10.0,SSW,6.9,18.4,N/A,,Clear,200,2013-08-02 19:35:00
2:55 PM,98.6,62.6,30,29.92,10.0,SSE,11.5,-,N/A,,Clear,160,2013-08-02 19:55:00
3:15 PM,100.4,62.6,29,29.91,10.0,SSW,8.1,-,N/A,,Clear,210,2013-08-02 20:15:00
3:35 PM,100.4,62.6,29,29.90,10.0,SSE,10.4,18.4,N/A,,Clear,160,2013-08-02 20:35:00
3:55 PM,100.4,60.8,27,29.90,10.0,South,12.7,-,N/A,,Clear,190,2013-08-02 20:55:00
4:15 PM,100.4,60.8,27,29.89,10.0,SSE,10.4,19.6,N/A,,Clear,150,2013-08-02 21:15:00
4:35 PM,100.4,62.6,29,29.89,10.0,SSE,11.5,-,N/A,,Clear,160,2013-08-02 21:35:00
4:55 PM,100.4,62.6,29,29.88,10.0,SSW,10.4,17.3,N/A,,Clear,200,2013-08-02 21:55:00
5:15 PM,100.4,62.6,29,29.88,10.0,SSE,10.4,-,N/A,,Clear,150,2013-08-02 22:15:00
5:35 PM,100.4,62.6,29,29.88,10.0,South,9.2,-,N/A,,Clear,170,2013-08-02 22:35:00
5:55 PM,100.4,62.6,29,29.88,10.0,South,10.4,16.1,N/A,,Clear,180,2013-08-02 22:55:00
6:15 PM,98.6,62.6,30,29.88,10.0,SSE,11.5,-,N/A,,Clear,160,2013-08-02 23:15:00
6:35 PM,98.6,62.6,30,29.87,10.0,South,12.7,16.1,N/A,,Clear,170,2013-08-02 23:35:00
6:55 PM,98.6,60.8,29,29.88,10.0,South,10.4,-,N/A,,Clear,180,2013-08-02 23:55:00
7:15 PM,96.8,60.8,30,29.87,10.0,South,11.5,-,N/A,,Clear,180,2013-08-03 00:15:00
7:35 PM,96.8,60.8,30,29.87,10.0,South,9.2,-,N/A,,Clear,190,2013-08-03 00:35:00
7:55 PM,95.0,60.8,32,29.88,10.0,South,8.1,-,N/A,,Clear,190,2013-08-03 00:55:00
8:15 PM,93.2,60.8,34,29.88,10.0,SSW,5.8,-,N/A,,Clear,200,2013-08-03 01:15:00
8:35 PM,91.4,60.8,36,29.89,10.0,SSW,4.6,-,N/A,,Clear,200,2013-08-03 01:35:00
8:55 PM,89.6,60.8,38,29.89,10.0,South,3.5,-,N/A,,Clear,190,2013-08-03 01:55:00
9:15 PM,87.8,60.8,40,29.90,10.0,South,4.6,-,N/A,,Clear,170,2013-08-03 02:15:00
9:35 PM,86.0,60.8,43,29.91,10.0,SE,5.8,-,N/A,,Clear,130,2013-08-03 02:35:00
9:55 PM,84.2,62.6,48,29.92,10.0,SE,4.6,-,N/A,,Clear,140,2013-08-03 02:55:00
10:15 PM,84.2,62.6,48,29.92,10.0,SSE,4.6,-,N/A,,Clear,150,2013-08-03 03:15:00
10:35 PM,84.2,62.6,48,29.93,10.0,SSE,4.6,-,N/A,,Clear,160,2013-08-03 03:35:00
10:55 PM,84.2,62.6,48,29.93,10.0,SSE,6.9,-,N/A,,Clear,160,2013-08-03 03:55:00
11:15 PM,84.2,62.6,48,29.94,10.0,SSE,9.2,-,N/A,,Clear,160,2013-08-03 04:15:00
11:35 PM,84.2,62.6,48,29.94,10.0,SSE,11.5,-,N/A,,Clear,160,2013-08-03 04:35:00
11:55 PM,84.2,62.6,48,29.95,10.0,SSE,12.7,-,N/A,,Clear,160,2013-08-03 04:55:00